Weather History for LTBA - September, 2013

Change the Weather History Date:

Friday, September 6, 2013

  Actual Average Record
Temperature  
Mean Temperature 72 °F -  
Max Temperature 79 °F 72 °F 82 °F (2007)
Min Temperature 65 °F 60 °F 53 °F (2003)
Cooling Degree Days 7    
Growing Degree Days 22 (Base 50)    
Moisture  
Dew Point 50 °F    
Average Humidity 45    
Maximum Humidity 60    
Minimum Humidity 24    
Precipitation  
Precipitation 0.00 in - - ()
Sea Level Pressure  
Sea Level Pressure 29.96 in    
Wind  
Wind Speed 6 mph ()    
Max Wind Speed 10 mph    
Max Gust Speed 18 mph    
Visibility 6.2 miles    
Events      
Averages and records for this station are not official NWS values.
T = Trace of Precipitation, MM = Missing Value Source: Averaged Metar Reports

Daily Weather History Graph

Daily Weather History Graph

Search for Another Location

Airport or City:

Trip Planner

Search our weather history database for the weather conditions in past years. The results will help you decide how hot, cold, wet, or windy it might be!

Date:

Astronomy

Sep. 06, 2013 Rise Set
Actual Time 6:36 AM EEST 7:29 PM EEST
Civil Twilight 6:08 AM EEST 7:57 PM EEST
Nautical Twilight 5:35 AM EEST 8:30 PM EEST
Astronomical Twilight 5:00 AM EEST 9:04 PM EEST
Moon 7:29 AM EEST (9/6) 7:41 PM EEST (9/6)
Length of Visible Light 13h 48m
Length of Day
12h 52m
New Moon, 1% of the Moon is Illuminated
Sep 6
New Moon
Sep 12
First Quarter
Sep 19
Full
Sep 27
Last Quarter
Oct 5
New

Hourly Weather History & Observations

Time (EEST) Temp. Dew Point Humidity Pressure Visibility Wind Dir Wind Speed Gust Speed Precip Events Conditions
12:20 AM 68.0 °F 48.2 °F 49% 30.01 in - East 9.2 mph - N/A   Clear
12:50 AM 68.0 °F 50.0 °F 52% 30.01 in - East 8.1 mph - N/A   Clear
1:20 AM 69.8 °F 51.8 °F 53% 30.01 in - ESE 9.2 mph - N/A   Clear
1:50 AM 68.0 °F 50.0 °F 52% 30.01 in - East 8.1 mph - N/A   Clear
2:20 AM 68.0 °F 50.0 °F 52% 30.01 in - East 5.8 mph - N/A   Clear
2:50 AM 68.0 °F 50.0 °F 52% 30.01 in - ENE 4.6 mph - N/A   Clear
3:00 AM 67 °F 49 °F 41% 30.00 in 6 mi ENE 4.6 mph - -  
3:20 AM 68.0 °F 50.0 °F 52% 29.98 in - East 6.9 mph - N/A   Clear
3:50 AM 66.2 °F 48.2 °F 52% 29.98 in - ENE 4.6 mph - N/A   Clear
4:20 AM 66.2 °F 48.2 °F 52% 29.98 in - ENE 4.6 mph - N/A   Clear
4:50 AM 66.2 °F 48.2 °F 52% 29.95 in - ENE 3.5 mph - N/A   Clear
5:20 AM 66.2 °F 48.2 °F 52% 29.95 in - ENE 3.5 mph - N/A   Clear
5:50 AM 66.2 °F 50.0 °F 56% 29.95 in - East 4.6 mph - N/A   Clear
6:20 AM 66.2 °F 51.8 °F 60% 29.95 in - East 6.9 mph - N/A   Clear
6:50 AM 68.0 °F 53.6 °F 60% 29.95 in - ESE 6.9 mph - N/A   Clear
7:20 AM 68.0 °F 53.6 °F 60% 29.95 in - ESE 5.8 mph - N/A   Clear
7:50 AM 69.8 °F 55.4 °F 60% 29.95 in - ESE 8.1 mph - N/A   Clear
8:20 AM 71.6 °F 53.6 °F 53% 29.95 in - ESE 6.9 mph - N/A   Clear
8:50 AM 71.6 °F 53.6 °F 53% 29.95 in - East 6.9 mph 18.4 mph N/A   Clear
9:00 AM 72 °F 53 °F 41% 29.96 in 6 mi East 6.9 mph - -  
9:20 AM 71.6 °F 51.8 °F 50% 29.98 in 6.2 mi ESE 8.1 mph - N/A   Partly Cloudy
9:50 AM 73.4 °F 48.2 °F 41% 29.98 in 6.2 mi ESE 8.1 mph - N/A   Partly Cloudy
10:20 AM 73.4 °F 48.2 °F 41% 29.98 in 6.2 mi SSE 6.9 mph - N/A   Partly Cloudy
10:50 AM 75.2 °F 51.8 °F 44% 29.98 in 6.2 mi SSE 4.6 mph - N/A   Partly Cloudy
11:20 AM 75.2 °F 51.8 °F 44% 29.98 in 6.2 mi South 5.8 mph - N/A   Partly Cloudy
11:50 AM 77.0 °F 51.8 °F 41% 29.98 in 6.2 mi SSW 5.8 mph - N/A   Partly Cloudy
12:20 PM 77.0 °F 50.0 °F 39% 29.98 in 6.2 mi WSW 8.1 mph - N/A   Partly Cloudy
12:50 PM 77.0 °F 51.8 °F 41% 29.95 in 6.2 mi SSW 6.9 mph - N/A   Partly Cloudy
1:20 PM 78.8 °F 48.2 °F 34% 29.95 in 6.2 mi SSW 6.9 mph - N/A   Scattered Clouds
1:50 PM 77.0 °F 51.8 °F 41% 29.95 in 6.2 mi SW 8.1 mph - N/A   Scattered Clouds
2:20 PM 78.8 °F 53.6 °F 42% 29.95 in 6.2 mi SW 8.1 mph - N/A   Scattered Clouds
2:50 PM 77.0 °F 46.4 °F 34% 29.95 in 6.2 mi WSW 6.9 mph - N/A   Scattered Clouds
3:00 PM 77 °F 47 °F 24% 29.95 in 6 mi WSW 6.9 mph - -   Partly Cloudy
3:20 PM 77.0 °F 50.0 °F 39% 29.95 in 6.2 mi WSW 5.8 mph - N/A   Scattered Clouds
3:50 PM 77.0 °F 53.6 °F 44% 29.92 in 6.2 mi WSW 8.1 mph - N/A   Partly Cloudy
4:20 PM 77.0 °F 51.8 °F 41% 29.92 in 6.2 mi SW 9.2 mph - N/A   Partly Cloudy
4:50 PM 77.0 °F 53.6 °F 44% 29.92 in 6.2 mi WSW 8.1 mph - N/A   Partly Cloudy
5:20 PM 78.8 °F 48.2 °F 34% 29.92 in 6.2 mi WSW 5.8 mph - N/A   Partly Cloudy
5:50 PM 77.0 °F 51.8 °F 41% 29.92 in - WSW 4.6 mph - N/A   Clear
6:20 PM 77.0 °F 46.4 °F 34% 29.92 in - West 3.5 mph - N/A   Clear
6:50 PM 77.0 °F 50.0 °F 39% 29.92 in - East 5.8 mph - N/A   Clear
7:20 PM 77.0 °F 51.8 °F 41% 29.92 in - ENE 10.4 mph - N/A   Clear
7:50 PM 75.2 °F 50.0 °F 41% 29.95 in - ENE 9.2 mph - N/A   Clear
8:20 PM 75.2 °F 50.0 °F 41% 29.95 in - ENE 8.1 mph - N/A   Clear
8:50 PM 73.4 °F 50.0 °F 44% 29.98 in - ENE 8.1 mph - N/A   Clear
9:00 PM 74 °F 49 °F 30% 29.97 in 6 mi ENE 8.1 mph - -  
9:20 PM 73.4 °F 48.2 °F 41% 29.98 in - NE 9.2 mph - N/A   Clear
9:50 PM 73.4 °F 48.2 °F 41% 29.98 in - ENE 10.4 mph - N/A   Clear
10:20 PM 73.4 °F 46.4 °F 38% 29.98 in - NE 9.2 mph - N/A   Clear
10:50 PM 73.4 °F 46.4 °F 38% 29.98 in - NE 6.9 mph - N/A   Clear
11:20 PM 71.6 °F 46.4 °F 41% 29.98 in - ENE 6.9 mph - N/A   Clear
11:50 PM 71.6 °F 48.2 °F 43% 29.98 in - NE 6.9 mph - N/A   Clear